User: anonymous   Login
Location: Hamburg
(53.5500°N, 10.0000°E)
Time: 07:11:27
(UTC+02:00)
Language:

Iridium 10 - Orbit

View from above orbital plane
View from above orbital plane
View from above satellite
View from above satellite

Ground track
Ground track

The orbit data is extracted from the following two-line orbital elements,

1 24839U 97030D   14295.42583307  .00000351  00000-0  11837-3 0   542
2 24839 086.3990 035.0329 0002418 113.0150 300.8963 14.34219015908108
Epoch (UTC): 22 October 2014 10:13:11
Eccentricity: 0.0002418
inclination: 86.3990°
perigee height: 776 km
apogee height: 779 km
right ascension of ascending node: 35.0329°
argument of perigee: 113.0150°
revolutions per day: 14.34219015
mean anomaly at epoch: 300.8963°
orbit number at epoch: 90810

The dashed part of the orbit path shows where the satellite is in the earth's shadow,  

DLR